Date,TemperatureHighF,TemperatureAvgF,TemperatureLowF,DewpointHighF,DewpointAvgF,DewpointLowF,HumidityHigh,HumidityAvg,HumidityLow,PressureMaxIn,PressureMinIn,WindSpeedMaxMPH,WindSpeedAvgMPH,GustSpeedMaxMPH,PrecipitationSumIn
2013-12-1,56,44,32,-100,-100,-100,0,0,100,0.00,40.00,0,-999,0,0.00
2013-12-2,48,41,34,-100,-100,-100,0,0,100,0.00,40.00,0,-999,0,0.00
2013-12-3,52,47,41,-100,-100,-100,0,0,100,0.00,40.00,0,-999,0,0.00
2013-12-4,62,51,39,-100,-100,-100,0,0,100,0.00,40.00,0,-999,0,0.00
2013-12-5,31,24,21,-100,-100,-100,0,0,100,0.00,40.00,0,-999,0,0.00
2013-12-6,21,18,12,-100,-100,-100,0,0,100,0.00,40.00,0,-999,0,0.00
2013-12-7,27,16,7,-100,-100,-100,0,0,100,0.00,40.00,0,-999,0,0.00
2013-12-8,25,23,18,-100,-100,-100,0,0,100,0.00,40.00,0,-999,0,0.00
2013-12-9,24,20,16,-100,-100,-100,0,0,100,0.00,40.00,0,-999,0,0.00
2013-12-10,29,22,10,-100,-100,-100,0,0,100,0.00,40.00,0,-999,0,0.00
2013-12-11,26,19,6,-100,-100,-100,0,0,100,0.00,40.00,0,-999,0,0.00
2013-12-12,35,24,4,-100,-100,-100,0,0,100,0.00,40.00,0,-999,0,0.00
2013-12-13,36,30,19,-100,-100,-100,0,0,100,0.00,40.00,0,-999,0,0.00
2013-12-14,34,30,21,-100,-100,-100,0,0,100,0.00,40.00,0,-999,0,0.00
2013-12-15,27,20,15,-100,-100,-100,0,0,100,0.00,40.00,0,-999,0,0.00
2013-12-16,25,22,21,-100,-100,-100,0,0,100,0.00,40.00,0,-999,0,0.00
2013-12-17,31,25,19,-100,-100,-100,0,0,100,0.00,40.00,0,-999,0,0.00
2013-12-18,40,32,18,-100,-100,-100,0,0,100,0.00,40.00,0,-999,0,0.00
2013-12-19,44,42,38,-100,-100,-100,0,0,100,0.00,40.00,0,-999,0,0.00
2013-12-20,60,44,32,-100,-100,-100,0,0,100,0.00,40.00,0,-999,0,0.00
2013-12-21,33,32,31,-100,-100,-100,0,0,100,0.00,40.00,0,-999,0,0.00
2013-12-22,32,29,23,-100,-100,-100,0,0,100,0.00,40.00,0,-999,0,0.00
2013-12-23,19,16,9,-100,-100,-100,0,0,100,0.00,40.00,0,-999,0,0.00
2013-12-24,21,13,2,-100,-100,-100,0,0,100,0.00,40.00,0,-999,0,0.00
2013-12-25,31,26,21,-100,-100,-100,0,0,100,0.00,40.00,0,-999,0,0.00
2013-12-26,40,33,21,-100,-100,-100,0,0,100,0.00,40.00,0,-999,0,0.00
2013-12-27,48,37,29,-100,-100,-100,0,0,100,0.00,40.00,0,-999,0,0.00
2013-12-28,53,40,36,-100,-100,-100,0,0,100,0.00,40.00,0,-999,0,0.00
2013-12-29,38,24,12,-100,-100,-100,0,0,100,0.00,40.00,0,-999,0,0.00
2013-12-30,21,14,4,-100,-100,-100,0,0,100,0.00,40.00,0,-999,0,0.00
2013-12-31,34,27,16,-100,-100,-100,0,0,100,0.00,40.00,0,-999,0,0.00